Total_Precipitation_Accumulation
0.00 0.00 0.00 0.01 0.01 0.02 0.02 0.01 0.01 0.04 0.04 0.02 0.06 0.29 0.18 0.06 0.05 0.04 0.01 0.01 0.00 0.00 0.00 0.00 0.00 0.00 0.01 0.00 0.01 0.01 0.00 0.00 0.00 0.04 0.19 0.26 0.30 0.39 0.37 0.22 0.18 0.27 0.12 0.17
0.00 0.00 0.00 0.00 0.00 0.00 0.00 0.00 0.02 0.01 0.00 0.01 0.03 0.06 0.68 0.26 0.14 0.09 0.02 0.01 0.01 0.00 0.00 0.00 0.02 0.01 0.00 0.00 0.00 0.00 0.00 0.00 0.00 0.02 0.04 0.15 0.35 0.46 0.36 0.21 0.28 0.41 0.10 0.06
0.00 0.00 0.00 0.00 0.02 0.00 0.00 0.03 0.03 0.00 0.00 0.02 0.07 0.08 0.03 0.20 0.13 0.05 0.03 0.01 0.02 0.02 0.00 0.01 0.02 0.01 0.00 0.00 0.00 0.00 0.01 0.02 0.00 0.00 0.06 0.10 0.17 0.56 0.69 0.57 0.26 0.08 0.09 0.08
0.00 0.00 0.00 0.00 0.00 0.00 0.02 0.00 0.00 0.00 0.01 0.09 0.07 0.08 0.01 0.02 0.09 0.07 0.03 0.01 0.01 0.06 0.02 0.02 0.03 0.03 0.00 0.01 0.01 0.02 0.02 0.00 0.00 0.00 0.03 0.21 0.37 0.58 0.29 0.14 0.10 0.09 0.08 0.15
0.00 0.00 0.01 0.00 0.02 0.03 0.02 0.00 0.00 0.00 0.01 0.02 0.06 0.04 0.04 0.01 0.20 0.49 0.02 0.03 0.06 0.07 0.06 0.04 0.02 0.05 0.05 0.04 0.05 0.07 0.07 0.01 0.00 0.00 0.06 0.13 0.10 0.13 0.14 0.06 0.28 0.24 0.11 0.12
0.00 0.00 0.00 0.00 0.03 0.03 0.03 0.00 0.00 0.00 0.00 0.00 0.02 0.02 0.02 0.01 0.10 0.20 0.01 0.03 0.04 0.08 0.06 0.07 0.09 0.08 0.05 0.05 0.07 0.09 0.10 0.06 0.03 0.00 0.01 0.08 0.15 0.26 0.23 0.28 0.23 0.22 0.20 0.28
0.00 0.00 0.00 0.00 0.01 0.02 0.02 0.01 0.00 0.00 0.00 0.00 0.01 0.01 0.00 0.00 0.00 0.00 0.04 0.16 0.10 0.08 0.11 0.10 0.12 0.06 0.07 0.04 0.03 0.03 0.10 0.09 0.07 0.04 0.03 0.03 0.08 0.17 0.18 0.21 0.16 0.33 0.38 0.21
0.00 0.00 0.00 0.00 0.00 0.01 0.01 0.00 0.00 0.02 0.03 0.08 0.01 0.01 0.02 0.01 0.02 0.01 0.03 0.08 0.10 0.12 0.20 0.40 0.10 0.09 0.10 0.09 0.05 0.00 0.04 0.14 0.21 0.24 0.19 0.18 0.20 0.30 0.40 0.57 0.47 0.47 0.62 0.47
0.00 0.00 0.00 0.00 0.00 0.00 0.00 0.00 0.00 0.04 0.01 0.00 0.00 0.00 0.01 0.02 0.07 0.04 0.05 0.11 0.06 0.08 0.22 0.60 0.16 0.29 0.34 0.08 0.02 0.00 0.01 0.12 0.31 0.52 0.61 0.60 0.48 1.27 1.52 1.43 1.15 0.73 0.87 0.73
0.00 0.00 0.00 0.00 0.00 0.00 0.00 0.00 0.00 0.02 0.03 0.02 0.02 0.00 0.00 0.06 0.32 0.16 0.05 0.18 0.08 0.03 0.07 0.10 0.15 0.19 0.11 0.12 0.10 0.09 0.17 0.18 0.61 0.77 0.91 0.78 1.44 1.36 1.23 1.02 0.88 0.85 1.28 1.47
0.00 0.00 0.00 0.00 0.00 0.00 0.00 0.00 0.00 0.00 0.03 0.03 0.04 0.00 0.01 0.12 0.19 0.03 0.09 0.11 0.12 0.07 0.07 0.07 0.05 0.04 0.06 0.08 0.16 0.25 0.40 0.93 1.40 1.56 1.59 1.89 1.89 1.25 0.85 0.53 0.41 0.41 0.82 1.14
0.00 0.00 0.00 0.00 0.00 0.00 0.00 0.00 0.00 0.00 0.00 0.00 0.00 0.00 0.01 0.02 0.15 0.10 0.10 0.12 0.09 0.09 0.08 0.02 0.02 0.04 0.03 0.03 0.12 0.28 0.88 1.77 2.50 2.51 2.31 2.77 2.02 1.69 1.08 0.53 0.50 0.79 0.72 0.61
0.00 0.00 0.00 0.00 0.00 0.00 0.00 0.00 0.00 0.00 0.00 0.00 0.00 0.01 0.10 0.10 0.44 0.38 0.08 0.09 0.05 0.02 0.01 0.01 0.03 0.04 0.08 0.10 0.30 0.80 1.28 2.61 2.58 2.50 2.60 1.64 1.68 1.15 1.07 0.82 0.47 0.38 0.65 0.78
0.00 0.00 0.00 0.00 0.01 0.01 0.00 0.00 0.00 0.00 0.00 0.00 0.01 0.02 0.07 0.07 0.05 0.01 0.01 0.01 0.02 0.00 0.00 0.09 0.24 0.33 0.72 0.95 1.13 1.19 1.07 0.80 0.71 0.71 1.41 0.95 1.03 1.36 0.92 0.79 0.63 0.46 0.36 0.34
0.00 0.00 0.00 0.00 0.00 0.00 0.00 0.00 0.00 0.00 0.00 0.00 0.00 0.01 0.04 0.06 0.06 0.01 0.00 0.00 0.00 0.00 0.00 0.02 0.16 0.25 0.26 0.20 0.18 0.28 0.26 0.33 0.36 0.36 0.45 0.44 0.26 0.27 0.31 0.31 0.20 0.23 0.16 0.10
0.00 0.00 0.00 0.00 0.00 0.00 0.00 0.00 0.00 0.00 0.00 0.00 0.00 0.00 0.00 0.08 0.14 0.03 0.00 0.00 0.00 0.00 0.00 0.00 0.00 0.00 0.01 0.00 0.00 0.02 0.03 0.02 0.04 0.07 0.09 0.07 0.04 0.02 0.01 0.00 0.00 0.01 0.01 0.00
0.00 0.00 0.00 0.00 0.00 0.00 0.00 0.00 0.00 0.00 0.00 0.00 0.00 0.00 0.00 0.01 0.02 0.00 0.00 0.00 0.00 0.00 0.00 0.01 0.01 0.00 0.02 0.01 0.00 0.00 0.00 0.00 0.00 0.02 0.02 0.01 0.00 0.00 0.00 0.00 0.00 0.00 0.00 0.00
0.00 0.00 0.00 0.00 0.00 0.00 0.00 0.00 0.00 0.00 0.00 0.00 0.00 0.00 0.00 0.01 0.01 0.00 0.00 0.00 0.00 0.00 0.00 0.01 0.00 0.00 0.00 0.00 0.00 0.00 0.00 0.00 0.00 0.00 0.00 0.00 0.00 0.00 0.00 0.00 0.00 0.00 0.00 0.00
0.00 0.00 0.00 0.00 0.00 0.00 0.00 0.00 0.00 0.00 0.00 0.00 0.00 0.01 0.22 0.14 0.01 0.00 0.00 0.00 0.00 0.00 0.00 0.00 0.00 0.00 0.02 0.03 0.02 0.03 0.00 0.01 0.01 0.00 0.00 0.00 0.00 0.00 0.00 0.00 0.00 0.00 0.00 0.00
0.00 0.00 0.00 0.00 0.00 0.00 0.00 0.00 0.00 0.00 0.00 0.00 0.00 0.00 0.01 0.01 0.00 0.00 0.00 0.00 0.00 0.00 0.00 0.00 0.02 0.04 0.09 0.08 0.06 0.02 0.01 0.00 0.00 0.00 0.00 0.00 0.00 0.00 0.00 0.00 0.00 0.00 0.00 0.00
0.00 0.00 0.00 0.00 0.00 0.00 0.00 0.01 0.00 0.00 0.00 0.00 0.01 0.12 0.06 0.02 0.01 0.04 0.03 0.00 0.01 0.01 0.01 0.02 0.03 0.07 0.05 0.05 0.04 0.01 0.00 0.00 0.00 0.00 0.00 0.00 0.00 0.00 0.00 0.00 0.00 0.00 0.00 0.00
0.00 0.00 0.00 0.00 0.00 0.02 0.01 0.00 0.01 0.03 0.03 0.01 0.01 0.07 0.27 0.14 0.07 0.01 0.01 0.02 0.02 0.05 0.07 0.05 0.04 0.07 0.04 0.03 0.02 0.01 0.00 0.00 0.00 0.00 0.00 0.00 0.00 0.00 0.00 0.00 0.00 0.00 0.00 0.00
0.13 0.04 0.01 0.00 0.00 0.03 0.03 0.00 0.00 0.00 0.01 0.00 0.00 0.00 0.01 0.00 0.00 0.00 0.01 0.02 0.03 0.05 0.05 0.02 0.05 0.05 0.04 0.03 0.02 0.01 0.00 0.00 0.00 0.00 0.00 0.00 0.00 0.00 0.00 0.00 0.00 0.00 0.00 0.00
0.27 0.14 0.03 0.03 0.08 0.02 0.04 0.01 0.00 0.00 0.08 0.03 0.01 0.00 0.00 0.00 0.00 0.00 0.00 0.00 0.02 0.03 0.02 0.01 0.04 0.02 0.00 0.00 0.00 0.00 0.00 0.00 0.00 0.00 0.00 0.00 0.00 0.00 0.00 0.00 0.00 0.00 0.00 0.00
0.37 0.49 0.07 0.02 0.06 0.01 0.08 0.12 0.00 0.00 0.02 0.14 0.07 0.00 0.00 0.00 0.00 0.00 0.00 0.01 0.02 0.03 0.02 0.01 0.00 0.00 0.00 0.00 0.00 0.00 0.00 0.00 0.00 0.00 0.00 0.00 0.00 0.00 0.00 0.00 0.00 0.00 0.00 0.00
0.03 0.19 0.25 0.08 0.31 0.20 0.04 0.00 0.00 0.02 0.02 0.09 0.14 0.06 0.00 0.00 0.00 0.00 0.00 0.00 0.01 0.01 0.00 0.00 0.00 0.00 0.00 0.00 0.00 0.00 0.00 0.00 0.00 0.00 0.00 0.00 0.00 0.00 0.00 0.00 0.00 0.00 0.00 0.00